Location: Ward Pound Ridge Reservation
(41.2500°N, 73.6000°W)
Time: 22:17:59
(UTC-04:00)

Tiangong 2 - Pass Details

Date: 08 October 2017
Orbit: 388 x 391 km, 42.8° (Epoch: 23 October)

Event Time Altitude Azimuth Distance (km) Brightness Sun altitude
Exits shadow 05:50:41 13° 212° (SSW) 1,253 3.3 -13.6°
Maximum altitude 05:53:05 30° 153° (SSE) 725 2.7 -13.1°
Drops below altitude 10° 05:55:57 10° 89° (E) 1,422 5.5 -12.6°
Sets 05:58:10 0° 78° (ENE) 2,281 6.9 -12.2°
